[[{"header":{"parameterUnit":"m.s-1","parameterCategory":2,"la1":30.2991,"la2":30.254,"lo1":-89.0895,"lo2":-89.0444,"dy":0.0017,"dx":0.0017,"nx":28,"ny":28,"refTime":"2025-07-08T09:00:00:Z","depth":"0","parameterNumber":2,"parameterNumberName":"U-component_of_CURRENTS"},"data":[0,0,0,0,0,0,0,0,0,0,0,0,0,0,0,0,0,0,0,0,0,0,0,0,0,0,0,0,0,0,0,0,0,0,0,0,0,0,0,0,0,0,0,0,0,0,0,0,0,0,0,0,0,0,0,0,0,0,0.3521,0.3522,0,0.3552,0.3553,0.3553,0.3534,0.3533,0.3532,0.3532,0.3571,0.3573,0.3575,0,0,0,0,0,0,0,0,0,0,0,0,0,0.3546,0.3545,0.3521,0.3522,0.3522,0.3552,0.3553,0.3553,0.3534,0.3533,0.3532,0.3531,0.3571,0.3573,0.3575,0,0,0,0,0,0,0,0,0,0,0,0,0,0.3551,0.3545,0.3521,0.3517,0.3517,0.3552,0.3553,0.3553,0.3534,0.3533,0.3532,0.3531,0.357,0.3573,0.3575,0.3617,0,0,0.3584,0.3585,0,0,0,0,0,0,0,0,0.3551,0.355,0.3517,0.3517,0.3518,0.3539,0.3576,0.3575,0.3535,0.3527,0.3532,0.353,0.3563,0.3566,0.3573,0.3619,0.362,0.3584,0.3586,0.3587,0.3588,0,0,0,0,0,0,0,0.355,0.3549,0.3533,0.3518,0.3518,0.3548,0.3547,0.3576,0.3551,0.3527,0.3526,0.3532,0.3563,0.3571,0.3574,0.3621,0.3584,0.3586,0.3588,0.3589,0.3734,0.3736,0,0,0,0,0,0,0.3544,0.3548,0.3532,0.3534,0.3533,0.3548,0.3547,0.3532,0.355,0.3552,0.3533,0.3531,0.3567,0.3571,0.3575,0.3674,0.3587,0.3589,0.3591,0.3732,0.3735,0.3737,0,0,0,0,0,0,0.3544,0.3542,0.353,0.3544,0.3545,0.3549,0.3534,0.3534,0.3545,0.3554,0.3556,0.3544,0.3566,0.3572,0.3616,0.3673,0.3591,0.3593,0.3729,0.3733,0.3736,0.384,0,0,0,0,0,0,0.3545,0.3541,0.3538,0.3543,0.3543,0.357,0.3535,0.3535,0.3551,0.3548,0.3565,0.3567,0.3565,0.3612,0.3618,0.3675,0.3595,0.3727,0.3731,0.3735,0.3834,0.3846,0.3857,0,0,0,0,0,0.3545,0.355,0.3537,0.3536,0.3535,0.3572,0.3577,0.3575,0.3553,0.3577,0.3581,0.3567,0.3643,0.3616,0.3623,0.3682,0.3724,0.373,0.3734,0.3828,0.3844,0.3857,0,0,0,0,0,0,0.3561,0.3548,0.3535,0.3534,0.3559,0.357,0.3588,0.3585,0.3606,0.3599,0.3596,0.36,0.3665,0.3656,0.3626,0.3735,0.3682,0.3689,0.3751,0.3765,0.3777,0.382,0.3597,0,0,0,0,0,0.3562,0.3556,0.3564,0.3566,0.3577,0.3583,0.3597,0.3599,0.3615,0.3621,0.3633,0.365,0.3693,0.3711,0.3741,0.3799,0.3811,0.3841,0.3853,0.3863,0.3903,0.3971,0.3994,0.3753,0.3753,0.3753,0,0,0.3566,0.3561,0.3557,0.357,0.358,0.3614,0.3589,0.3618,0.3654,0.3625,0.3677,0.3696,0.3718,0.3787,0.3815,0.3785,0.3932,0.3869,0.3878,0.3913,0.3979,0.4003,0.4024,0.3757,0.3756,0.3756,0,0,0.358,0.3571,0.3574,0.3603,0.3627,0.3643,0.3655,0.3677,0.3697,0.3752,0.3747,0.3811,0.3845,0.3896,0.392,0.4018,0.3995,0.4008,0.4104,0.417,0.4191,0.4209,0.4229,0.4249,0.401,0.401,0.401,0,0.3586,0.3582,0.359,0.3616,0.3643,0.3658,0.3691,0.373,0.3767,0.3805,0.3781,0.3896,0.3915,0.4029,0.4067,0.4053,0.4057,0.4047,0.4187,0.4206,0.4223,0.424,0.426,0.4016,0.4015,0.4014,0.4014,0,0.3604,0.3614,0.3629,0.3657,0.3703,0.3734,0.3788,0.3834,0.3856,0.3899,0.4011,0.4054,0.4123,0.4144,0.4142,0.4279,0.423,0.4196,0.4153,0.4254,0.4264,0.4284,0.4024,0.4022,0.402,0.4019,0,0,0.3555,0.3623,0.3623,0.3652,0.3722,0.3759,0.3844,0.393,0.3999,0.4063,0.4165,0.4271,0.4298,0.4331,0.4343,0.4417,0.454,0.4365,0.4366,0.439,0.4652,0.4431,0.443,0.4519,0.4523,0.4527,0.46,0,0.3554,0.3607,0.3648,0.3716,0.3749,0.3817,0.3903,0.3996,0.4079,0.4188,0.4279,0.4385,0.4366,0.4416,0.4492,0.4537,0.46,0.4522,0.4548,0.455,0.4346,0.4449,0.4249,0.4281,0.4618,0.4622,0.4624,0,0.3526,0.3577,0.3636,0.3744,0.3767,0.3822,0.3964,0.4049,0.4219,0.4293,0.4423,0.449,0.4642,0.4596,0.4742,0.4683,0.4691,0.4713,0.4714,0.4496,0.4366,0.4241,0.4303,0.4242,0.4653,0.4651,0.4649,0,0.3459,0.3553,0.36,0.3636,0.3773,0.3824,0.3905,0.4072,0.4179,0.4374,0.4471,0.4631,0.4707,0.4789,0.4825,0.4798,0.4947,0.4901,0.4713,0.4695,0.4527,0.4485,0.4542,0.5013,0.5012,0.5012,0.5012,0,0.3414,0.3447,0.3572,0.36,0.3693,0.3797,0.3927,0.4037,0.4229,0.4351,0.4517,0.4625,0.4761,0.4846,0.4877,0.4839,0.498,0.4765,0.4718,0.4548,0.4509,0.4445,0.4419,0.5015,0.5014,0.5014,0.5013,0,0.332,0.3387,0.3463,0.3611,0.3656,0.3729,0.3928,0.4035,0.421,0.4374,0.4444,0.4648,0.472,0.4813,0.4922,0.4858,0.4741,0.4827,0.4588,0.451,0.4214,0.4198,0.4041,0.3937,0.464,0.4635,0.4631,0,0.3272,0.3299,0.3462,0.3525,0.3587,0.3715,0.3808,0.4003,0.4116,0.4356,0.4418,0.4558,0.459,0.4661,0.461,0.4601,0.4552,0.4394,0.431,0.4196,0.415,0.4021,0.3939,0.4138,0.413,0.4124,0.4119,0,0.3225,0.3284,0.338,0.3491,0.3583,0.3687,0.3817,0.3896,0.4094,0.4186,0.4279,0.4326,0.4367,0.4246,0.4216,0.4199,0.4174,0.4253,0.4243,0.3853,0.3618,0.3493,0.4074,0.4063,0.4068,0.4073,0.4076,0.4078,0.3214,0.3269,0.3388,0.3475,0.3561,0.3602,0.3607,0.3717,0.3787,0.3825,0.4,0.3944,0.3974,0.3875,0.3839,0.3671,0.3703,0.358,0.3601,0.3505,0.3303,0.3713,0.3564,0.3567,0.3569,0.3571,0.3573,0,0.3209,0.3269,0.336,0.3426,0.3418,0.3498,0.3561,0.3496,0.3418,0.3505,0.349,0.3457,0.3338,0.3374,0.326,0.3111,0.3011,0.3042,0.2908,0.2886,0.3364,0.3242,0.2885,0.2885,0.2885,0.2885,0.2885,0.2885,0.3219,0.328,0.3303,0.3251,0.3255,0.316,0.3128,0.302,0.3018,0.2879,0.2824,0.2888,0.3065,0.3031,0.2888,0.2806,0.2679,0.2454,0.2536,0.2979,0.3034,0.3087,0.2971,0.2563,0.2562,0.194,0.1935,0.1932]},{"header":{"parameterUnit":"m.s-1","parameterCategory":2,"la1":30.2991,"la2":30.254,"lo1":-89.0895,"lo2":-89.0444,"dy":0.0017,"dx":0.0017,"nx":28,"ny":28,"refTime":"2025-07-08T09:00:00:Z","depth":"0","parameterNumber":3,"parameterNumberName":"V-component_of_CURRENTS"},"data":[0,0,0,0,0,0,0,0,0,0,0,0,0,0,0,0,0,0,0,0,0,0,0,0,0,0,0,0,0,0,0,0,0,0,0,0,0,0,0,0,0,0,0,0,0,0,0,0,0,0,0,0,0,0,0,0,0,0,0.0301,0.0301,0,0.0265,0.0265,0.0264,0.0232,0.0232,0.0231,0.0231,0.0197,0.0196,0.0196,0,0,0,0,0,0,0,0,0,0,0,0,0,0.0311,0.0311,0.0301,0.0301,0.0301,0.0265,0.0265,0.0264,0.0232,0.0232,0.0231,0.0231,0.0197,0.0196,0.0196,0,0,0,0,0,0,0,0,0,0,0,0,0,0.0294,0.0311,0.0301,0.0281,0.0279,0.0265,0.0265,0.0264,0.0232,0.0232,0.0231,0.0231,0.0197,0.0196,0.0195,0.0199,0,0,0.0193,0.0192,0,0,0,0,0,0,0,0,0.0295,0.0293,0.0284,0.0282,0.028,0.0253,0.0256,0.0243,0.0232,0.0249,0.0231,0.0231,0.0217,0.0214,0.0207,0.0198,0.0196,0.0193,0.0192,0.0192,0.0191,0,0,0,0,0,0,0,0.0296,0.0294,0.0286,0.0284,0.0281,0.0263,0.026,0.0253,0.0235,0.0248,0.0245,0.0243,0.0215,0.0208,0.0206,0.0196,0.0193,0.0192,0.0191,0.0191,0.019,0.0191,0,0,0,0,0,0,0.0304,0.0296,0.0287,0.0285,0.0287,0.0263,0.026,0.0262,0.0235,0.0231,0.0243,0.0241,0.021,0.0207,0.0205,0.0233,0.0192,0.0191,0.019,0.0189,0.019,0.0191,0,0,0,0,0,0,0.0304,0.0304,0.0289,0.029,0.0287,0.0264,0.0266,0.0261,0.0255,0.0232,0.0228,0.0242,0.021,0.0206,0.0207,0.023,0.019,0.0189,0.0189,0.019,0.019,0.0273,0,0,0,0,0,0,0.0305,0.0304,0.0308,0.0291,0.0287,0.0293,0.0266,0.0261,0.0255,0.0252,0.023,0.0226,0.0209,0.0209,0.0206,0.0228,0.0189,0.0188,0.0189,0.019,0.0269,0.0276,0.0282,0,0,0,0,0,0.0306,0.0319,0.0309,0.0308,0.0293,0.0294,0.0291,0.0272,0.0255,0.0263,0.0245,0.0227,0.0213,0.0209,0.0205,0.0228,0.0188,0.0189,0.019,0.0266,0.0275,0.0282,0,0,0,0,0,0,0.0325,0.0317,0.0305,0.0315,0.0309,0.0289,0.0292,0.0277,0.0268,0.0262,0.0237,0.0233,0.0241,0.022,0.0216,0.0228,0.0196,0.0197,0.0255,0.0263,0.0269,0.0314,0.0188,0,0,0,0,0,0.0332,0.0339,0.0327,0.0334,0.0333,0.0312,0.0308,0.0296,0.0285,0.0279,0.0265,0.0248,0.0244,0.0242,0.0231,0.0241,0.0233,0.0251,0.0257,0.0263,0.0296,0.0306,0.0318,0.0195,0.0195,0.0195,0,0,0.034,0.0337,0.034,0.0339,0.0329,0.0345,0.0308,0.0309,0.0326,0.0278,0.0295,0.0272,0.025,0.0262,0.0264,0.0249,0.0286,0.0265,0.027,0.0301,0.0309,0.0321,0.0332,0.0195,0.0195,0.0195,0,0,0.0369,0.0359,0.0378,0.038,0.0374,0.0367,0.0371,0.0357,0.0354,0.0364,0.0335,0.0337,0.0318,0.0321,0.0316,0.0352,0.032,0.0331,0.0406,0.0415,0.0426,0.0436,0.0416,0.0423,0.0336,0.0336,0.0336,0,0.0379,0.0403,0.0383,0.0405,0.0418,0.0383,0.0414,0.0408,0.0398,0.0416,0.0381,0.0389,0.0357,0.0399,0.0401,0.0373,0.0357,0.038,0.0426,0.0436,0.0445,0.0422,0.0429,0.034,0.034,0.034,0.0339,0,0.0426,0.0445,0.0458,0.0478,0.0489,0.0507,0.0503,0.0513,0.05,0.0502,0.0534,0.0499,0.0515,0.049,0.0453,0.0501,0.0461,0.0433,0.0414,0.0463,0.0434,0.0441,0.0346,0.0345,0.0344,0.0343,0,0,0.0452,0.0485,0.0491,0.0524,0.0531,0.0554,0.0583,0.0618,0.0669,0.0643,0.0716,0.068,0.0668,0.0663,0.062,0.0616,0.0634,0.0551,0.0549,0.0545,0.0634,0.0557,0.0555,0.0611,0.0613,0.0614,0.0582,0,0.0497,0.0562,0.0565,0.0636,0.0672,0.0667,0.0713,0.0738,0.0753,0.0813,0.0786,0.0832,0.0732,0.0753,0.0732,0.067,0.0658,0.0645,0.0578,0.0576,0.0513,0.0563,0.0564,0.0532,0.0587,0.0588,0.0589,0,0.0544,0.0587,0.0661,0.074,0.0758,0.0796,0.0883,0.0924,0.0981,0.1001,0.1033,0.1015,0.102,0.093,0.0858,0.085,0.0757,0.0692,0.0689,0.0604,0.0512,0.0496,0.054,0.0448,0.0598,0.0597,0.0596,0,0.0586,0.066,0.0728,0.075,0.0825,0.087,0.0918,0.0983,0.1067,0.114,0.1213,0.1193,0.1212,0.1108,0.0945,0.0913,0.0855,0.0795,0.064,0.0631,0.0616,0.0603,0.0583,0.0761,0.0761,0.0762,0.0762,0,0.0637,0.0695,0.0757,0.0798,0.0914,0.0939,0.1076,0.112,0.1234,0.1364,0.1325,0.1413,0.1258,0.1196,0.1025,0.085,0.0914,0.0678,0.0635,0.0638,0.0628,0.0531,0.044,0.076,0.076,0.0761,0.0761,0,0.0674,0.0705,0.08,0.0894,0.0934,0.1022,0.1187,0.1306,0.1378,0.1551,0.1591,0.1598,0.1502,0.1319,0.1149,0.0963,0.0721,0.0717,0.0712,0.0668,0.0418,0.033,0.0239,0.0191,0.0556,0.0554,0.0553,0,0.0699,0.0747,0.0874,0.0958,0.1006,0.1143,0.1262,0.1372,0.1513,0.1664,0.1767,0.1729,0.1708,0.1415,0.1101,0.0808,0.0678,0.0604,0.0543,0.043,0.0301,0.0252,0.0216,0.0543,0.0542,0.054,0.0539,0,0.0764,0.0801,0.0893,0.1057,0.1187,0.1347,0.1515,0.1642,0.1789,0.1908,0.2025,0.2011,0.1736,0.1441,0.1031,0.0814,0.0525,0.0566,0.0479,0.0321,0.0243,0.0168,0.0514,0.0528,0.053,0.053,0.0531,0.0531,0.0823,0.0903,0.1025,0.1185,0.1339,0.1527,0.1661,0.1829,0.2019,0.2176,0.2172,0.2153,0.1764,0.1201,0.0913,0.0433,0.042,0.0285,0.0196,0.0165,0.0103,0.0402,0.0343,0.0343,0.0343,0.0343,0.0343,0,0.0906,0.1003,0.1155,0.1342,0.1511,0.1574,0.1825,0.1946,0.2129,0.2243,0.2293,0.21,0.1612,0.1144,0.0488,0.0152,0.0057,-0.002,-0.0052,-0.0065,0.0243,0.0228,0.0108,0.0108,0.0108,0.0108,0.0108,0.0108,0.096,0.1107,0.1183,0.145,0.1582,0.1797,0.1929,0.2074,0.2193,0.2286,0.2281,0.2262,0.1945,0.0787,0.0076,-0.0104,-0.0279,-0.0375,-0.0448,-0.0211,-0.0187,-0.0164,-0.0193,-0.04,-0.0401,-0.0671,-0.0674,-0.0677]}],[{"header":{"parameterUnit":"m.s-1","parameterCategory":2,"la1":30.2991,"la2":30.254,"lo1":-89.0895,"lo2":-89.0444,"dy":0.0017,"dx":0.0017,"nx":28,"ny":28,"refTime":"2025-07-08T09:00:00:Z","depth":"2","parameterNumber":2,"parameterNumberName":"U-component_of_CURRENTS"},"data":[0,0,0,0,0,0,0,0,0,0,0,0,0,0,0,0,0,0,0,0,0,0,0,0,0,0,0,0,0,0,0,0,0,0,0,0,0,0,0,0,0,0,0,0,0,0,0,0,0,0,0,0,0,0,0,0,0,0,0.3042,0.3042,0,0.3072,0.3072,0.3073,0.3079,0.3079,0.3078,0.3078,0.3075,0.3075,0.3076,0,0,0,0,0,0,0,0,0,0,0,0,0,0.3043,0.3043,0.3042,0.3042,0.3042,0.3071,0.3072,0.3073,0.3079,0.3079,0.3078,0.3077,0.3075,0.3075,0.3076,0,0,0,0,0,0,0,0,0,0,0,0,0,0.3058,0.3043,0.3042,0.3046,0.3046,0.3071,0.3072,0.3073,0.308,0.3079,0.3078,0.3077,0.3075,0.3075,0.3076,0.3097,0,0,0.3078,0.3078,0,0,0,0,0,0,0,0,0.3057,0.3058,0.3045,0.3046,0.3046,0.3068,0.3072,0.3078,0.308,0.3071,0.3078,0.3077,0.3068,0.3069,0.3082,0.3097,0.3097,0.3078,0.3079,0.3079,0.3079,0,0,0,0,0,0,0,0.3056,0.3057,0.3057,0.3045,0.3046,0.3064,0.3065,0.3074,0.3076,0.3072,0.3071,0.3069,0.3068,0.3082,0.3082,0.3097,0.3078,0.3079,0.3079,0.3079,0.3183,0.3186,0,0,0,0,0,0,0.3043,0.3056,0.3056,0.3058,0.3046,0.3064,0.3066,0.3065,0.3076,0.3077,0.307,0.3069,0.3081,0.3081,0.3082,0.315,0.3079,0.3079,0.308,0.3181,0.3184,0.3187,0,0,0,0,0,0,0.3043,0.3043,0.3055,0.3055,0.3057,0.3064,0.3064,0.3065,0.3088,0.3075,0.3075,0.309,0.308,0.3081,0.3097,0.3147,0.308,0.308,0.3178,0.3182,0.3185,0.3257,0,0,0,0,0,0,0.3043,0.3043,0.3049,0.3054,0.3056,0.3076,0.3064,0.3067,0.3085,0.3085,0.3092,0.309,0.308,0.3096,0.3097,0.3147,0.3081,0.3175,0.318,0.3184,0.3252,0.3263,0.3272,0,0,0,0,0,0.3043,0.3049,0.3049,0.305,0.3061,0.3077,0.3081,0.3086,0.3087,0.3103,0.3105,0.3091,0.3126,0.3098,0.3099,0.315,0.3173,0.3179,0.3184,0.3247,0.3261,0.3272,0,0,0,0,0,0,0.3053,0.305,0.305,0.3055,0.3068,0.3077,0.3093,0.3097,0.3115,0.3117,0.3106,0.3106,0.3154,0.3138,0.3107,0.3196,0.3154,0.316,0.3202,0.3214,0.3224,0.328,0.3081,0,0,0,0,0,0.3057,0.306,0.3064,0.3071,0.3081,0.3093,0.3104,0.3108,0.3117,0.3125,0.3131,0.3145,0.3179,0.318,0.3206,0.3233,0.3249,0.3274,0.3284,0.3292,0.3341,0.34,0.342,0.3204,0.3204,0.3204,0,0,0.3058,0.3061,0.306,0.3074,0.3088,0.3114,0.3099,0.312,0.3152,0.3121,0.3171,0.3187,0.3199,0.3247,0.3266,0.3233,0.3356,0.3299,0.3306,0.3352,0.3408,0.3429,0.3448,0.3208,0.3207,0.3206,0,0,0.3064,0.3073,0.308,0.3097,0.3116,0.3136,0.3145,0.3166,0.3188,0.3224,0.3233,0.3279,0.3297,0.3335,0.3351,0.3432,0.3421,0.3436,0.3515,0.357,0.3589,0.3606,0.3621,0.3639,0.3423,0.3424,0.3424,0,0.307,0.3077,0.3087,0.3106,0.3125,0.3149,0.3174,0.321,0.3235,0.327,0.3247,0.3351,0.3354,0.3445,0.3483,0.346,0.3475,0.346,0.3584,0.3601,0.3617,0.3629,0.3648,0.3428,0.3427,0.3427,0.3426,0,0.308,0.3095,0.3108,0.3143,0.3172,0.3196,0.3241,0.3289,0.3319,0.3352,0.3449,0.3469,0.3525,0.3544,0.354,0.3666,0.3633,0.36,0.3551,0.3644,0.365,0.3668,0.3434,0.3432,0.3431,0.343,0,0,0.3058,0.3105,0.3108,0.3132,0.3192,0.3215,0.3296,0.3374,0.3437,0.3489,0.3575,0.3661,0.3681,0.3707,0.3714,0.378,0.3888,0.3748,0.3749,0.3761,0.3994,0.3803,0.3803,0.3873,0.3877,0.3881,0.3941,0,0.3065,0.3101,0.3129,0.3183,0.321,0.3274,0.3339,0.3418,0.3494,0.3587,0.3661,0.375,0.3735,0.3777,0.384,0.3889,0.3947,0.3875,0.3908,0.391,0.3726,0.3822,0.3531,0.3547,0.3958,0.3961,0.3963,0,0.3051,0.3086,0.3128,0.3201,0.322,0.3269,0.3397,0.3459,0.3605,0.3665,0.3779,0.3838,0.3969,0.3933,0.4063,0.4015,0.4033,0.4061,0.4061,0.3884,0.3754,0.3529,0.3564,0.3993,0.399,0.3988,0.3986,0,0.3008,0.3077,0.3115,0.3139,0.3232,0.3286,0.3354,0.3488,0.3573,0.3746,0.3832,0.3956,0.4024,0.4102,0.4137,0.4122,0.4256,0.4214,0.4062,0.4046,0.381,0.3765,0.4332,0.4332,0.4332,0.4331,0.4331,0,0.2982,0.3008,0.3104,0.3121,0.3188,0.3265,0.3374,0.346,0.3624,0.3716,0.3868,0.3956,0.4081,0.4153,0.4183,0.4155,0.4271,0.4118,0.407,0.3818,0.3776,0.4175,0.4156,0.4334,0.4333,0.4333,0.4332,0,0.291,0.2963,0.3013,0.3124,0.316,0.3212,0.3379,0.347,0.3621,0.3757,0.3827,0.3994,0.4057,0.4138,0.4236,0.4173,0.4198,0.4157,0.3831,0.3743,0.3945,0.3929,0.402,0.4014,0.4009,0.4005,0.4002,0,0.2872,0.2888,0.3,0.3041,0.3095,0.3201,0.3275,0.3445,0.3539,0.3745,0.3789,0.3931,0.395,0.4006,0.3957,0.3949,0.4075,0.3661,0.3588,0.398,0.3925,0.3916,0.3908,0.3299,0.329,0.3283,0.3277,0,0.2817,0.2859,0.2917,0.2991,0.3071,0.3146,0.3259,0.3318,0.3488,0.3589,0.3651,0.37,0.3743,0.3573,0.3561,0.3526,0.3637,0.3507,0.4037,0.34,0.3299,0.3243,0.326,0.3212,0.3218,0.3223,0.3227,0.3229,0.2791,0.2808,0.2884,0.2936,0.3011,0.3026,0.3023,0.3132,0.3188,0.3239,0.338,0.3329,0.3357,0.3162,0.3057,0.298,0.3235,0.3115,0.314,0.3172,0.3055,0.2948,0.2773,0.2776,0.278,0.2783,0.2785,0,0.275,0.2772,0.2822,0.285,0.2847,0.2932,0.2956,0.2906,0.2849,0.2946,0.2953,0.2705,0.2591,0.2626,0.2406,0.2386,0.2396,0.2293,0.23,0.2365,0.2424,0.227,0.178,0.1777,0.1773,0.1771,0,0,0.2733,0.2741,0.2734,0.2667,0.2677,0.2597,0.2551,0.2484,0.248,0.2386,0.2337,0.2512,0.2569,0.2158,0.2095,0.1898,0.2124,0.1823,0.2635,0.2712,0.2766,0.2906,0.2744,0,0,0,0,0]},{"header":{"parameterUnit":"m.s-1","parameterCategory":2,"la1":30.2991,"la2":30.254,"lo1":-89.0895,"lo2":-89.0444,"dy":0.0017,"dx":0.0017,"nx":28,"ny":28,"refTime":"2025-07-08T09:00:00:Z","depth":"2","parameterNumber":3,"parameterNumberName":"V-component_of_CURRENTS"},"data":[0,0,0,0,0,0,0,0,0,0,0,0,0,0,0,0,0,0,0,0,0,0,0,0,0,0,0,0,0,0,0,0,0,0,0,0,0,0,0,0,0,0,0,0,0,0,0,0,0,0,0,0,0,0,0,0,0,0,0.0164,0.0164,0,0.0128,0.0127,0.0127,0.0103,0.0103,0.0103,0.0102,0.0064,0.0063,0.0062,0,0,0,0,0,0,0,0,0,0,0,0,0,0.0173,0.0174,0.0164,0.0164,0.0163,0.0128,0.0127,0.0127,0.0103,0.0103,0.0103,0.0102,0.0064,0.0063,0.0062,0,0,0,0,0,0,0,0,0,0,0,0,0,0.0157,0.0174,0.0164,0.0147,0.0145,0.0128,0.0127,0.0127,0.0103,0.0103,0.0103,0.0102,0.0064,0.0063,0.0062,0.0059,0,0,0.0058,0.0057,0,0,0,0,0,0,0,0,0.0158,0.0157,0.015,0.0148,0.0146,0.0119,0.0116,0.0104,0.0103,0.0119,0.0102,0.0102,0.0082,0.0079,0.0073,0.0057,0.0056,0.0058,0.0057,0.0056,0.0056,0,0,0,0,0,0,0,0.0159,0.0158,0.015,0.015,0.0147,0.0127,0.0125,0.0114,0.0103,0.0118,0.0116,0.0111,0.0081,0.0075,0.0072,0.0055,0.0058,0.0057,0.0056,0.0055,0.0042,0.0043,0,0,0,0,0,0,0.0166,0.0159,0.0151,0.0149,0.0151,0.0127,0.0125,0.0128,0.0103,0.0099,0.0112,0.0111,0.0077,0.0074,0.0071,0.0089,0.0056,0.0055,0.0054,0.0042,0.0043,0.0043,0,0,0,0,0,0,0.0166,0.0166,0.0153,0.0152,0.0149,0.0128,0.0132,0.0128,0.0125,0.0098,0.0094,0.0113,0.0077,0.0073,0.0068,0.0087,0.0055,0.0053,0.0042,0.0042,0.0043,0.0112,0,0,0,0,0,0,0.0167,0.0166,0.0171,0.0153,0.015,0.0152,0.0132,0.0127,0.0122,0.012,0.0098,0.0094,0.0076,0.007,0.0066,0.0084,0.0052,0.0041,0.0042,0.0043,0.0109,0.0115,0.0119,0,0,0,0,0,0.0167,0.0179,0.0172,0.0171,0.0158,0.0153,0.015,0.0133,0.0122,0.0128,0.0111,0.0095,0.0072,0.0069,0.0065,0.0083,0.0041,0.0042,0.0043,0.0106,0.0113,0.0119,0,0,0,0,0,0,0.0185,0.0177,0.0169,0.0178,0.0169,0.0149,0.015,0.0138,0.0128,0.0126,0.0101,0.0096,0.0099,0.0079,0.0076,0.008,0.0054,0.0054,0.0104,0.011,0.0115,0.0152,0.0051,0,0,0,0,0,0.0192,0.02,0.0186,0.0193,0.019,0.0171,0.0166,0.0156,0.0143,0.0138,0.0124,0.0108,0.01,0.0095,0.0083,0.0086,0.0071,0.0093,0.0098,0.0103,0.0129,0.0123,0.013,0.0046,0.0046,0.0046,0,0,0.0199,0.0196,0.0199,0.0197,0.0187,0.02,0.0168,0.0166,0.0179,0.0136,0.015,0.0127,0.0104,0.0109,0.0109,0.0095,0.0114,0.0104,0.0109,0.0133,0.0125,0.0133,0.014,0.0047,0.0047,0.0047,0,0,0.0223,0.0217,0.0233,0.0232,0.0225,0.0218,0.0222,0.0208,0.0204,0.0208,0.0184,0.0179,0.0159,0.0155,0.0148,0.0176,0.0143,0.0161,0.022,0.0213,0.0221,0.0227,0.02,0.0204,0.0164,0.0164,0.0164,0,0.0231,0.0255,0.0236,0.0254,0.0264,0.0233,0.026,0.0252,0.024,0.0253,0.0222,0.0218,0.0188,0.0214,0.0217,0.0192,0.0173,0.0199,0.0222,0.0228,0.0234,0.0205,0.0208,0.0167,0.0167,0.0167,0.0166,0,0.0271,0.0289,0.03,0.0319,0.0326,0.0342,0.0334,0.0343,0.0331,0.0328,0.0345,0.0306,0.0309,0.0289,0.0259,0.0288,0.0255,0.023,0.0211,0.0247,0.0213,0.0216,0.0172,0.0171,0.017,0.0169,0,0,0.0298,0.0324,0.033,0.036,0.0366,0.0384,0.0408,0.0435,0.0474,0.0443,0.0492,0.0456,0.0436,0.0427,0.0387,0.0375,0.0374,0.0322,0.0319,0.0305,0.0345,0.0291,0.0288,0.0351,0.0352,0.0353,0.03,0,0.034,0.0397,0.0397,0.046,0.0493,0.0487,0.0522,0.0539,0.0545,0.0581,0.0543,0.057,0.0487,0.0497,0.0467,0.0407,0.0386,0.0391,0.0305,0.0303,0.0259,0.0291,0.0302,0.0254,0.0301,0.0302,0.0302,0,0.0384,0.0423,0.0488,0.0554,0.0569,0.0603,0.0674,0.0703,0.0733,0.0739,0.0746,0.0716,0.0701,0.0625,0.0538,0.0542,0.0455,0.0396,0.0392,0.0328,0.0255,0.0228,0.0255,0.0305,0.0305,0.0304,0.0304,0,0.0429,0.0493,0.0555,0.0573,0.0633,0.0673,0.0714,0.0757,0.0822,0.0856,0.0907,0.0857,0.0855,0.0749,0.0594,0.0576,0.0488,0.0446,0.0318,0.0311,0.03,0.0292,0.0398,0.0399,0.0399,0.0399,0.0399,0,0.0481,0.0533,0.0586,0.0622,0.0723,0.0739,0.0855,0.0882,0.0962,0.1057,0.1,0.105,0.0888,0.0806,0.065,0.0484,0.0523,0.0346,0.0306,0.032,0.0314,0.0345,0.0339,0.0397,0.0397,0.0398,0.0398,0,0.0519,0.0545,0.0629,0.0708,0.0744,0.0821,0.0961,0.1058,0.1103,0.1227,0.1253,0.1212,0.1096,0.091,0.0732,0.0569,0.0412,0.034,0.0353,0.0316,0.0226,0.0224,0.0213,0.0211,0.0209,0.0208,0.0207,0,0.0544,0.0586,0.0696,0.0771,0.0814,0.0936,0.1038,0.1124,0.1234,0.1324,0.1394,0.1324,0.127,0.0972,0.0696,0.0426,0.0389,0.0248,0.0221,0.0251,0.0212,0.0214,0.0215,0.0222,0.0221,0.022,0.0219,0,0.0603,0.0635,0.0715,0.086,0.0977,0.1116,0.1258,0.1359,0.1464,0.1546,0.1602,0.1563,0.1292,0.101,0.0638,0.045,0.029,0.0222,0.0274,0.0262,0.0253,0.0217,0.0219,0.0212,0.0213,0.0213,0.0214,0.0214,0.0655,0.0723,0.0829,0.0971,0.111,0.1267,0.1378,0.1516,0.166,0.1764,0.1727,0.166,0.1362,0.0879,0.056,0.0231,0.0257,0.0125,0.013,0.0136,0.0142,0.013,0.0066,0.0066,0.0066,0.0066,0.0066,0,0.0727,0.0808,0.094,0.1104,0.1255,0.1317,0.1512,0.1608,0.1742,0.1825,0.1845,0.154,0.1235,0.0893,0.0413,0.0123,0.0111,0.0011,0.0068,0.0077,0.0085,0.009,-0.0001,-0.0002,-0.0003,-0.0003,0,0,0.0772,0.0897,0.0958,0.1192,0.1313,0.1495,0.1594,0.1711,0.1793,0.1838,0.1803,0.1746,0.1331,0.0967,0.0574,0.0291,0.0249,0.0224,0.0308,0.0431,0.0442,0.0177,0.0198,0,0,0,0,0]}],[{"header":{"parameterUnit":"m.s-1","parameterCategory":2,"la1":30.2991,"la2":30.254,"lo1":-89.0895,"lo2":-89.0444,"dy":0.0017,"dx":0.0017,"nx":28,"ny":28,"refTime":"2025-07-08T09:00:00:Z","depth":"4","parameterNumber":2,"parameterNumberName":"U-component_of_CURRENTS"},"data":[0,0,0,0,0,0,0,0,0,0,0,0,0,0,0,0,0,0,0,0,0,0,0,0,0,0,0,0,0,0,0,0,0,0,0,0,0,0,0,0,0,0,0,0,0,0,0,0,0,0,0,0,0,0,0,0,0,0,0.1897,0.1898,0,0.1905,0.1904,0.1904,0.1952,0.1953,0.1955,0.1956,0.1991,0.1991,0.199,0,0,0,0,0,0,0,0,0,0,0,0,0,0.1824,0.1825,0.1897,0.1898,0.1898,0.1905,0.1904,0.1904,0.1951,0.1953,0.1955,0.1957,0.1992,0.1991,0.199,0,0,0,0,0,0,0,0,0,0,0,0,0,0.1841,0.1826,0.1897,0.1927,0.193,0.1905,0.1904,0.1904,0.1951,0.1953,0.1956,0.1958,0.1992,0.1991,0.199,0.1936,0,0,0.1988,0.1987,0,0,0,0,0,0,0,0,0.1841,0.1844,0.1922,0.1925,0.1928,0.1934,0.1892,0.1918,0.195,0.1937,0.1956,0.1959,0.1976,0.1977,0.1965,0.1938,0.1939,0.1987,0.1987,0.1987,0.1986,0,0,0,0,0,0,0,0.1839,0.1843,0.1895,0.1922,0.1926,0.1905,0.1911,0.1896,0.194,0.1939,0.1943,0.1952,0.1978,0.1966,0.1967,0.194,0.1988,0.1987,0.1986,0.1986,0.2046,0.2048,0,0,0,0,0,0,0.1852,0.1842,0.1895,0.1896,0.1895,0.1906,0.1911,0.1926,0.1939,0.1945,0.1949,0.1954,0.1966,0.1968,0.1968,0.2038,0.1987,0.1986,0.1985,0.2043,0.2046,0.2048,0,0,0,0,0,0,0.185,0.1856,0.1895,0.1873,0.1877,0.1906,0.192,0.1925,0.1959,0.1948,0.1954,0.1986,0.1968,0.1969,0.2007,0.2035,0.1985,0.1985,0.2041,0.2044,0.2047,0.2093,0,0,0,0,0,0,0.1848,0.1856,0.1884,0.1874,0.1879,0.1906,0.1918,0.1923,0.196,0.1967,0.198,0.1983,0.197,0.2009,0.2006,0.2033,0.1984,0.2038,0.2042,0.2046,0.2088,0.2097,0.2104,0,0,0,0,0,0.1845,0.1863,0.1885,0.1892,0.1912,0.1907,0.1907,0.1931,0.196,0.1972,0.2,0.1985,0.2033,0.2009,0.2006,0.2033,0.2036,0.2041,0.2046,0.2085,0.2095,0.2104,0,0,0,0,0,0,0.1846,0.187,0.1894,0.1921,0.1931,0.1918,0.1934,0.1952,0.1979,0.2004,0.1999,0.2003,0.2054,0.2039,0.2013,0.2067,0.2036,0.2041,0.2067,0.2077,0.2085,0.2114,0.1983,0,0,0,0,0,0.186,0.1886,0.1897,0.1924,0.1931,0.1941,0.1951,0.197,0.1985,0.2001,0.2017,0.204,0.2058,0.2068,0.208,0.2091,0.2104,0.2114,0.2122,0.2129,0.2154,0.2204,0.2218,0.2064,0.2064,0.2064,0,0,0.1869,0.1887,0.1904,0.1927,0.1936,0.1944,0.1953,0.1978,0.2,0.1998,0.2049,0.2071,0.2073,0.2104,0.2123,0.2099,0.2177,0.2135,0.214,0.2163,0.221,0.2225,0.2239,0.2067,0.2066,0.2066,0,0,0.1878,0.1915,0.1934,0.1943,0.1971,0.1972,0.1992,0.201,0.2038,0.2075,0.2097,0.2146,0.2156,0.2172,0.2175,0.2233,0.2226,0.2241,0.2289,0.2336,0.2349,0.2361,0.2379,0.2392,0.2233,0.2233,0.2234,0,0.1895,0.1914,0.1937,0.1949,0.196,0.1992,0.2003,0.2025,0.2062,0.2094,0.2108,0.2187,0.2188,0.2234,0.2264,0.2249,0.2273,0.2245,0.2346,0.2358,0.2369,0.2385,0.2398,0.2236,0.2236,0.2236,0.2235,0,0.1898,0.1928,0.1935,0.1966,0.1982,0.1995,0.2026,0.207,0.2115,0.2143,0.2228,0.2249,0.2301,0.2307,0.2301,0.2384,0.2374,0.2356,0.2317,0.2387,0.2399,0.2412,0.224,0.2239,0.2238,0.2238,0,0,0.1897,0.1931,0.194,0.1953,0.1992,0.1998,0.2053,0.2097,0.2151,0.2214,0.2287,0.2338,0.2386,0.2399,0.2411,0.2453,0.2538,0.2449,0.245,0.2459,0.264,0.2452,0.2448,0.2546,0.2549,0.2552,0.261,0,0.1894,0.1909,0.1936,0.1961,0.1963,0.2016,0.2058,0.2118,0.218,0.2261,0.2327,0.2405,0.2406,0.2456,0.2502,0.255,0.2581,0.2524,0.258,0.2581,0.2399,0.246,0.2561,0.262,0.2623,0.2625,0.2626,0,0.1884,0.1892,0.1908,0.1952,0.1963,0.2001,0.2083,0.2129,0.2247,0.2307,0.2411,0.2473,0.2582,0.2563,0.2679,0.2651,0.266,0.2676,0.2677,0.2501,0.2419,0.2542,0.265,0.2648,0.2647,0.2645,0.2644,0,0.1838,0.1876,0.1887,0.1898,0.1953,0.2001,0.2054,0.2157,0.222,0.2367,0.244,0.2563,0.2651,0.2709,0.2758,0.274,0.286,0.2822,0.2651,0.2637,0.2768,0.2755,0.2887,0.2887,0.2887,0.2886,0.2886,0,0.1796,0.1814,0.1878,0.1878,0.192,0.1986,0.2067,0.2141,0.2278,0.2356,0.248,0.2559,0.2702,0.278,0.2797,0.2768,0.289,0.2679,0.2649,0.2782,0.2771,0.2776,0.2762,0.2889,0.2888,0.2888,0.2887,0,0.173,0.1774,0.1789,0.1859,0.1896,0.1933,0.2072,0.213,0.2271,0.2386,0.2449,0.261,0.2702,0.2786,0.288,0.2796,0.2796,0.2742,0.2884,0.2858,0.253,0.2519,0.2563,0.2557,0.2552,0.2548,0.2545,0,0.1688,0.1688,0.176,0.1782,0.1823,0.1904,0.1962,0.2115,0.218,0.2385,0.2423,0.2581,0.266,0.2643,0.2736,0.2741,0.2698,0.267,0.2599,0.2536,0.2503,0.2499,0.2494,0.2537,0.2535,0.2534,0.2533,0,0.1595,0.1639,0.1643,0.1688,0.1752,0.1809,0.1911,0.1952,0.2125,0.2279,0.2352,0.2402,0.2482,0.2538,0.2553,0.255,0.2682,0.2616,0.2625,0.2559,0.2503,0.2475,0.2476,0.2515,0.2518,0.2519,0.252,0,0.1533,0.1514,0.1539,0.1567,0.1644,0.1682,0.1754,0.1832,0.1923,0.2149,0.2171,0.2319,0.247,0.2438,0.2459,0.244,0.2394,0.2303,0.2328,0.2348,0.2246,0.2142,0.2031,0,0,0,0,0,0.1455,0.1418,0.1421,0.144,0.1514,0.1569,0.1696,0.1777,0.1956,0.1955,0.2061,0.2124,0.2164,0.224,0.2174,0.234,0.2391,0.225,0.2297,0.2418,0.2438,0.2336,0,0,0,0,0,0,0.1403,0.1392,0.1365,0.1332,0.134,0.1414,0.1497,0.1619,0.1626,0.1815,0.1851,0.1988,0.2059,0.2185,0.2134,0.2152,0.2134,0.2345,0.2338,0.2407,0.2425,0.2441,0.2343,0,0,0,0,0]},{"header":{"parameterUnit":"m.s-1","parameterCategory":2,"la1":30.2991,"la2":30.254,"lo1":-89.0895,"lo2":-89.0444,"dy":0.0017,"dx":0.0017,"nx":28,"ny":28,"refTime":"2025-07-08T09:00:00:Z","depth":"4","parameterNumber":3,"parameterNumberName":"V-component_of_CURRENTS"},"data":[0,0,0,0,0,0,0,0,0,0,0,0,0,0,0,0,0,0,0,0,0,0,0,0,0,0,0,0,0,0,0,0,0,0,0,0,0,0,0,0,0,0,0,0,0,0,0,0,0,0,0,0,0,0,0,0,0,0,0.0084,0.0084,0,0.0057,0.0056,0.0056,0.004,0.004,0.004,0.004,0.0019,0.0018,0.0018,0,0,0,0,0,0,0,0,0,0,0,0,0,0.009,0.009,0.0084,0.0084,0.0084,0.0057,0.0056,0.0056,0.004,0.004,0.004,0.004,0.0019,0.0018,0.0018,0,0,0,0,0,0,0,0,0,0,0,0,0,0.0077,0.009,0.0084,0.0072,0.0071,0.0057,0.0056,0.0056,0.004,0.004,0.004,0.004,0.0019,0.0018,0.0018,0.0015,0,0,0.0015,0.0015,0,0,0,0,0,0,0,0,0.0078,0.0077,0.0074,0.0073,0.0072,0.0052,0.0051,0.0042,0.004,0.0051,0.004,0.0039,0.0031,0.0029,0.0024,0.0014,0.0013,0.0015,0.0015,0.0014,0.0014,0,0,0,0,0,0,0,0.0079,0.0078,0.0073,0.0074,0.0072,0.0057,0.0055,0.0049,0.0042,0.005,0.0049,0.0046,0.003,0.0024,0.0023,0.0012,0.0015,0.0015,0.0014,0.0014,0.0009,0.001,0,0,0,0,0,0,0.0085,0.0079,0.0074,0.0072,0.0075,0.0057,0.0055,0.0058,0.0042,0.0039,0.0047,0.0046,0.0026,0.0024,0.0022,0.0038,0.0014,0.0014,0.0013,0.0009,0.0009,0.001,0,0,0,0,0,0,0.0085,0.0085,0.0075,0.0075,0.0072,0.0057,0.006,0.0058,0.0056,0.0039,0.0036,0.0048,0.0025,0.0023,0.0023,0.0037,0.0013,0.0013,0.0009,0.0009,0.001,0.0058,0,0,0,0,0,0,0.0085,0.0085,0.0089,0.0075,0.0073,0.0074,0.006,0.0057,0.0054,0.0053,0.0039,0.0037,0.0025,0.0024,0.0022,0.0035,0.0012,0.0008,0.0009,0.001,0.0056,0.006,0.0063,0,0,0,0,0,0.0086,0.0094,0.009,0.0089,0.0079,0.0075,0.0072,0.006,0.0054,0.0058,0.0048,0.0037,0.0027,0.0024,0.0021,0.0035,0.0008,0.0009,0.0009,0.0054,0.0059,0.0063,0,0,0,0,0,0,0.0098,0.0092,0.0088,0.0094,0.0088,0.0072,0.0072,0.0065,0.0059,0.0058,0.0042,0.004,0.0043,0.0031,0.0028,0.0034,0.0015,0.0015,0.005,0.0054,0.0058,0.0072,0.0011,0,0,0,0,0,0.0103,0.0108,0.0099,0.0104,0.0102,0.0088,0.0084,0.0078,0.0069,0.0067,0.0059,0.005,0.0043,0.0043,0.0034,0.004,0.0014,0.0045,0.0049,0.0052,0.0062,0.003,0.0032,0.0012,0.0012,0.0012,0,0,0.0107,0.0106,0.0108,0.0107,0.01,0.011,0.0086,0.0084,0.0096,0.0066,0.008,0.0062,0.0047,0.0052,0.0053,0.0045,0.0043,0.0053,0.0057,0.0064,0.0031,0.0033,0.0035,0.0013,0.0013,0.0013,0,0,0.0124,0.012,0.0131,0.0132,0.0127,0.0123,0.0126,0.0117,0.0115,0.012,0.0102,0.0096,0.0088,0.0082,0.0077,0.0096,0.0062,0.0091,0.0126,0.0095,0.0097,0.0098,0.0063,0.006,0.0096,0.0096,0.0096,0,0.013,0.0147,0.0133,0.0147,0.0156,0.0135,0.0156,0.015,0.0144,0.0148,0.0132,0.012,0.0105,0.0113,0.0119,0.0106,0.0078,0.0112,0.0101,0.0101,0.0101,0.0065,0.0062,0.0098,0.0098,0.0098,0.0098,0,0.0156,0.0172,0.0179,0.0196,0.0203,0.0215,0.0211,0.0216,0.021,0.0204,0.0205,0.0177,0.0173,0.0163,0.0148,0.0148,0.0123,0.0106,0.0091,0.0106,0.0067,0.0063,0.0102,0.0101,0.01,0.01,0,0,0.0172,0.0194,0.02,0.0224,0.0233,0.0247,0.0264,0.0279,0.0297,0.0275,0.0292,0.027,0.0248,0.0241,0.0214,0.0188,0.0161,0.0153,0.015,0.0121,0.0086,0.0083,0.0078,0.0137,0.0137,0.0137,0.0056,0,0.0201,0.0245,0.0248,0.0299,0.0325,0.032,0.0346,0.0354,0.0348,0.0356,0.0318,0.0323,0.028,0.0279,0.0244,0.0187,0.0152,0.0184,0.0073,0.0069,0.0068,0.0074,0.0136,0.0053,0.0051,0.0051,0.005,0,0.0231,0.0263,0.0315,0.0367,0.0378,0.0406,0.0447,0.0467,0.0462,0.0457,0.0438,0.0403,0.0373,0.0327,0.0231,0.0251,0.0175,0.0119,0.0114,0.0095,0.006,0.0034,0.0042,0.0042,0.0043,0.0044,0.0044,0,0.0261,0.0314,0.0364,0.0379,0.0427,0.0455,0.0485,0.05,0.0533,0.0523,0.0532,0.0476,0.0457,0.0357,0.0239,0.0234,0.0116,0.0095,0.0017,0.0015,0.002,0.002,0.0018,0.0018,0.0018,0.0019,0.0019,0,0.0295,0.0338,0.0385,0.0413,0.0489,0.0505,0.0578,0.0588,0.0616,0.0656,0.0591,0.0594,0.0462,0.0375,0.0257,0.0127,0.0127,0.0027,-0.0002,0.0041,0.0044,0.0016,0.0017,0.0015,0.0016,0.0017,0.0017,0,0.0317,0.0343,0.041,0.0474,0.0504,0.0561,0.0654,0.0703,0.0712,0.0757,0.0759,0.0689,0.0581,0.0432,0.0269,0.0164,0.0033,-0.0019,0.0038,0.0012,-0.0054,-0.005,-0.0104,-0.0104,-0.0105,-0.0105,-0.0106,0,0.0331,0.0365,0.0457,0.0511,0.0546,0.0636,0.0702,0.0752,0.0799,0.0813,0.083,0.0745,0.0675,0.045,0.0284,0.0058,0.002,-0.0059,-0.0056,-0.0042,-0.0065,-0.006,-0.0055,-0.0107,-0.0107,-0.0107,-0.0107,0,0.0363,0.0392,0.0452,0.0557,0.0639,0.0739,0.0825,0.0869,0.0915,0.0923,0.0899,0.0782,0.0653,0.0467,0.0288,0.0123,-0.0009,-0.0066,-0.0066,-0.0063,-0.0047,-0.0068,-0.0062,-0.0109,-0.0109,-0.0109,-0.0108,0,0.039,0.0436,0.0509,0.0607,0.0711,0.0803,0.0854,0.0911,0.0962,0.0963,0.0954,0.0814,0.0736,0.05,0.0336,0.0176,0.0132,0.0067,0.0059,0.0059,0.0127,0.0173,0.0159,0,0,0,0,0,0.0418,0.0469,0.0555,0.066,0.076,0.0818,0.0918,0.0957,0.0993,0.0989,0.0976,0.0858,0.063,0.0531,0.0373,0.0309,0.009,0.0115,0.0008,-0.012,-0.0118,-0.0067,0,0,0,0,0,0,0.0437,0.0514,0.0553,0.0681,0.0755,0.0868,0.0934,0.0962,0.096,0.0967,0.0856,0.0802,0.0585,0.072,0.0365,0.0316,0.0222,0.0012,0.0008,-0.0121,-0.0119,-0.0117,-0.0064,0,0,0,0,0]}]]